DW8343 Weather Reports


time (UTC)temp
C
wind
direction
speed
KPH
gust
KPH
rain 1hr
cm
rain 24hr
cm
rain mn
cm
humidity
%
barometer
mb
20260508233940 20 144 0.0 0.0 0.00 0.76 0.76 99 1008.1
20260508233440 19 279 0.0 0.0 0.00 0.76 0.76 99 1007.7
20260508232936 19 37 0.0 0.0 0.00 0.76 0.76 98 1007.7
20260508232433 19 34 0.0 1.6 0.00 0.76 0.76 98 1007.6
20260508231930 18 270 0.0 1.6 0.00 0.76 0.76 97 1007.9
20260508231428 18 44 1.6 3.2 0.00 0.76 0.76 96 1007.8
20260508230924 18 59 1.6 3.2 0.30 0.76 0.76 95 1008.1
20260508230421 18 19 0.0 9.7 3.25 0.76 0.76 93 1008.5
20260508225918 19 82 0.0 1.6 4.32 0.71 0.71 91 1008.7
20260508225415 22 340 3.2 12.9 1.37 0.23 0.23 81 1009.9
20260508224913 27 285 0.0 1.6 0.00 0.00 0.00 52 1008.7
20260508224410 27 285 0.0 1.6 0.00 0.00 0.00 48 1008.0
20260508223907 27 337 0.0 3.2 0.00 0.00 0.00 48 1007.7
20260508223405 27 242 0.0 1.6 0.00 0.00 0.00 47 1007.6
20260508222902 27 130 1.6 4.8 0.00 0.00 0.00 47 1007.6
20260508222359 27 223 1.6 3.2 0.00 0.00 0.00 47 1007.5
20260508221856 27 88 3.2 4.8 0.00 0.00 0.00 47 1007.6
20260508221351 27 244 1.6 4.8 0.00 0.00 0.00 47 1007.4
20260508220848 28 198 1.6 11.3 0.00 0.00 0.00 47 1007.5
20260508220344 28 234 4.8 6.4 0.00 0.00 0.00 46 1007.4
20260508215841 28 150 1.6 14.5 0.00 0.00 0.00 46 1007.5
20260508215338 29 242 4.8 11.3 0.00 0.00 0.00 45 1007.6
20260508214834 29 195 3.2 17.7 0.00 0.00 0.00 45 1007.7
20260508214332 30 332 6.4 9.7 0.00 0.00 0.00 44 1008.1
20260508213828 30 218 9.7 14.5 0.00 0.00 0.00 43 1008.0
20260508213325 30 243 4.8 11.3 0.00 0.00 0.00 44 1008.1
20260508212821 30 296 6.4 11.3 0.00 0.00 0.00 44 1008.3
20260508212318 30 237 3.2 4.8 0.00 0.00 0.00 44 1008.3
20260508211813 30 246 1.6 4.8 0.00 0.00 0.00 44 1008.7
20260508211309 29 222 3.2 6.4 0.00 0.00 0.00 46 1008.8
20260508210807 29 311 3.2 6.4 0.00 0.00 0.00 47 1008.8
20260508210304 30 131 4.8 11.3 0.00 0.00 0.00 47 1009.0
20260508205801 30 240 6.4 11.3 0.00 0.00 0.00 45 1009.1
20260508205257 29 230 3.2 11.3 0.00 0.00 0.00 47 1009.2
20260508204753 30 170 3.2 6.4 0.00 0.00 0.00 48 1009.4
20260508204250 30 134 1.6 6.4 0.00 0.00 0.00 47 1009.4
20260508203746 28 200 1.6 6.4 0.00 0.00 0.00 49 1009.3
20260508203242 29 135 6.4 16.1 0.00 0.00 0.00 47 1009.5
20260508202738 29 26 3.2 4.8 0.00 0.00 0.00 48 1009.5
20260508202236 28 218 1.6 4.8 0.00 0.00 0.00 49 1009.7
20260508201733 28 48 1.6 4.8 0.00 0.00 0.00 48 1009.6
20260508201229 28 239 3.2 9.7 0.00 0.00 0.00 47 1009.9
20260508200726 28 9 0.0 9.7 0.00 0.00 0.00 49 1009.9
20260508200222 29 275 1.6 6.4 0.00 0.00 0.00 46 1010.1
20260508195719 28 178 1.6 3.2 0.00 0.00 0.00 48 1010.1
20260508195215 28 46 1.6 4.8 0.00 0.00 0.00 49 1010.0
20260508194712 28 213 4.8 6.4 0.00 0.00 0.00 49 1010.1
20260508194209 28 191 1.6 9.7 0.00 0.00 0.00 49 1010.2
20260508193706 28 291 11.3 14.5 0.00 0.00 0.00 49 1010.4
20260508193202 28 343 6.4 12.9 0.00 0.00 0.00 49 1010.4
20260508192659 28 257 3.2 6.4 0.00 0.00 0.00 49 1010.5
20260508192156 28 303 6.4 11.3 0.00 0.00 0.00 49 1010.4
20260508191653 28 257 4.8 11.3 0.00 0.00 0.00 48 1010.3
20260508191149 28 251 3.2 6.4 0.00 0.00 0.00 50 1010.4
20260508190647 27 310 1.6 4.8 0.00 0.00 0.00 49 1010.4
20260508190143 27 149 6.4 11.3 0.00 0.00 0.00 50 1010.5
20260508185640 27 151 6.4 12.9 0.00 0.00 0.00 49 1010.6
20260508185138 27 289 3.2 12.9 0.00 0.00 0.00 51 1010.5
20260508184635 27 243 6.4 11.3 0.00 0.00 0.00 51 1010.7
20260508184132 26 183 4.8 6.4 0.00 0.00 0.00 51 1010.7
20260508183629 26 225 3.2 14.5 0.00 0.00 0.00 51 1010.8
20260508183124 26 209 3.2 12.9 0.00 0.00 0.00 52 1010.7
20260508182621 26 303 3.2 9.7 0.00 0.00 0.00 55 1011.0
20260508182118 26 256 6.4 14.5 0.00 0.00 0.00 53 1010.9
20260508181613 26 272 9.7 12.9 0.00 0.00 0.00 52 1010.9
20260508181111 26 237 4.8 11.3 0.00 0.00 0.00 53 1011.0
20260508180608 26 208 4.8 6.4 0.00 0.00 0.00 54 1011.2
20260508180104 26 225 4.8 12.9 0.00 0.00 0.00 52 1011.5
20260508175601 26 250 3.2 11.3 0.00 0.00 0.00 51 1011.4
20260508175058 26 224 6.4 11.3 0.00 0.00 0.00 51 1011.5
20260508174555 25 204 4.8 11.3 0.00 0.00 0.00 52 1011.6
20260508174052 25 107 1.6 14.5 0.00 0.00 0.00 52 1011.6
20260508173549 25 322 6.4 9.7 0.00 0.00 0.00 52 1011.6
20260508173045 25 210 9.7 14.5 0.00 0.00 0.00 51 1011.6
20260508172542 25 263 4.8 9.7 0.00 0.00 0.00 50 1011.6
20260508172038 25 224 3.2 6.4 0.00 0.00 0.00 51 1011.7
20260508171535 24 184 6.4 12.9 0.00 0.00 0.00 51 1012.0
20260508171032 23 243 9.7 11.3 0.00 0.00 0.00 51 1012.0
20260508170529 24 38 8.0 11.3 0.00 0.00 0.00 51 1012.2
20260508170027 24 123 6.4 9.7 0.00 0.00 0.00 50 1012.4
20260508165524 24 254 6.4 14.5 0.00 0.00 0.00 50 1012.4
20260508165020 23 295 4.8 11.3 0.00 0.00 0.00 52 1012.5
20260508164517 24 114 1.6 6.4 0.00 0.00 0.00 51 1012.6
20260508164014 24 223 4.8 9.7 0.00 0.00 0.00 50 1012.7
20260508163511 23 162 1.6 14.5 0.00 0.00 0.00 51 1013.0
20260508163007 23 275 8.0 9.7 0.00 0.00 0.00 51 1013.1
20260508162505 22 19 3.2 6.4 0.00 0.00 0.00 54 1012.8
20260508162002 23 126 4.8 11.3 0.00 0.00 0.00 53 1013.2
20260508161458 23 279 3.2 12.9 0.00 0.00 0.00 51 1013.2
20260508160955 23 259 11.3 16.1 0.00 0.00 0.00 49 1013.3
20260508160454 22 231 6.4 20.9 0.00 0.00 0.00 50 1013.4
20260508155950 22 244 4.8 22.5 0.00 0.00 0.00 51 1013.4
20260508155447 23 156 6.4 16.1 0.00 0.00 0.00 49 1013.4
20260508154944 23 258 9.7 16.1 0.00 0.00 0.00 48 1013.5
20260508154442 22 257 4.8 12.9 0.00 0.00 0.00 49 1013.6
20260508153938 22 146 3.2 16.1 0.00 0.00 0.00 51 1013.4
20260508153435 22 291 6.4 25.7 0.00 0.00 0.00 51 1013.5
20260508152931 22 321 4.8 9.7 0.00 0.00 0.00 52 1013.8
20260508152428 22 234 6.4 17.7 0.00 0.00 0.00 51 1013.8
20260508151925 21 212 6.4 20.9 0.00 0.00 0.00 53 1013.9
20260508151422 22 179 4.8 12.9 0.00 0.00 0.00 52 1013.9
20260508150918 21 341 6.4 11.3 0.00 0.00 0.00 52 1014.1
20260508150415 21 221 8.0 20.9 0.00 0.00 0.00 54 1014.0
20260508145911 21 95 3.2 6.4 0.00 0.00 0.00 55 1014.1
20260508145407 21 258 3.2 6.4 0.00 0.00 0.00 55 1014.2
20260508144904 21 226 4.8 9.7 0.00 0.00 0.00 55 1014.2
20260508144402 21 21 4.8 6.4 0.00 0.00 0.00 57 1014.1
20260508143859 21 54 1.6 12.9 0.00 0.00 0.00 57 1014.1
20260508143356 20 222 4.8 11.3 0.00 0.00 0.00 57 1014.3
20260508142853 20 188 3.2 12.9 0.00 0.00 0.00 57 1014.2
20260508142350 20 308 3.2 11.3 0.00 0.00 0.00 58 1014.2
20260508141846 20 168 6.4 11.3 0.00 0.00 0.00 58 1014.1
20260508141343 20 306 3.2 9.7 0.00 0.00 0.00 58 1014.1
20260508140841 20 214 4.8 9.7 0.00 0.00 0.00 59 1014.3
20260508140338 19 286 4.8 12.9 0.00 0.00 0.00 59 1014.2
20260508135833 19 243 3.2 4.8 0.00 0.00 0.00 60 1014.3
20260508135330 18 128 4.8 12.9 0.00 0.00 0.00 60 1014.2
20260508134826 18 104 1.6 9.7 0.00 0.00 0.00 61 1014.3
20260508134323 18 224 8.0 12.9 0.00 0.00 0.00 63 1014.5
20260508133819 18 225 3.2 12.9 0.00 0.00 0.00 64 1014.5
20260508133318 18 149 1.6 9.7 0.00 0.00 0.00 65 1014.5
20260508132814 18 192 3.2 9.7 0.00 0.00 0.00 65 1014.5
20260508132312 17 202 1.6 12.9 0.00 0.00 0.00 65 1014.4
20260508131808 17 235 3.2 6.4 0.00 0.00 0.00 65 1014.7
20260508131304 17 210 3.2 9.7 0.00 0.00 0.00 66 1014.5
20260508130800 17 185 6.4 14.5 0.00 0.00 0.00 67 1014.6
20260508130258 16 274 4.8 4.8 0.00 0.00 0.00 69 1014.4
20260508125753 16 295 3.2 9.7 0.00 0.00 0.00 71 1014.5
20260508125249 16 222 0.0 3.2 0.00 0.00 0.00 71 1014.6
20260508124748 16 251 3.2 4.8 0.00 0.00 0.00 72 1014.6
20260508124244 15 347 3.2 4.8 0.00 0.00 0.00 73 1014.4
20260508123743 15 238 3.2 9.7 0.00 0.00 0.00 73 1014.5
20260508123240 15 226 4.8 6.4 0.00 0.00 0.00 74 1014.4
20260508122737 15 259 1.6 3.2 0.00 0.00 0.00 74 1014.4
20260508122234 15 253 1.6 3.2 0.00 0.00 0.00 75 1014.3
20260508121731 15 48 1.6 3.2 0.00 0.00 0.00 75 1014.4
20260508121229 15 349 1.6 6.4 0.00 0.00 0.00 75 1014.3
20260508120726 15 249 1.6 3.2 0.00 0.00 0.00 75 1014.3
20260508120225 15 251 4.8 6.4 0.00 0.00 0.00 75 1014.4
20260508115721 14 179 1.6 6.4 0.00 0.00 0.00 76 1014.4
20260508115219 14 284 3.2 4.8 0.00 0.00 0.00 76 1014.1
20260508114715 14 207 3.2 3.2 0.00 0.00 0.00 76 1014.3
20260508114212 14 200 1.6 3.2 0.00 0.00 0.00 76 1014.2
20260508113709 15 275 0.0 3.2 0.00 0.00 0.00 76 1014.3
20260508113207 15 35 1.6 4.8 0.00 0.00 0.00 76 1014.3
20260508112703 15 344 0.0 4.8 0.00 0.00 0.00 76 1014.2
20260508112200 15 72 1.6 11.3 0.00 0.00 0.00 75 1014.4
20260508111657 15 235 4.8 6.4 0.00 0.00 0.00 75 1014.1
20260508111154 15 240 3.2 6.4 0.00 0.00 0.00 75 1014.3
20260508110652 15 3 3.2 3.2 0.00 0.00 0.00 75 1014.2
20260508110148 15 227 1.6 4.8 0.00 0.00 0.00 74 1014.2
20260508105643 15 237 1.6 6.4 0.00 0.00 0.00 74 1014.2
20260508105140 15 266 4.8 6.4 0.00 0.00 0.00 74 1014.0
20260508104638 15 270 0.0 3.2 0.00 0.00 0.00 74 1014.0
20260508104134 15 238 0.0 3.2 0.00 0.00 0.00 74 1014.2
20260508103631 15 255 1.6 4.8 0.00 0.00 0.00 74 1013.9
20260508103129 15 100 1.6 4.8 0.00 0.00 0.00 73 1014.2
20260508102626 15 345 1.6 3.2 0.00 0.00 0.00 74 1014.0
20260508102124 15 70 1.6 6.4 0.00 0.00 0.00 73 1013.8
20260508101621 15 151 3.2 4.8 0.00 0.00 0.00 73 1013.9
20260508101118 15 248 1.6 4.8 0.00 0.00 0.00 72 1013.8
20260508100616 15 261 1.6 3.2 0.00 0.00 0.00 73 1013.8
20260508100114 15 275 1.6 3.2 0.00 0.00 0.00 73 1013.7
20260508095610 15 332 0.0 9.7 0.00 0.00 0.00 72 1013.9
20260508095107 15 298 1.6 1.6 0.00 0.00 0.00 72 1013.8
20260508094604 15 86 0.0 3.2 0.00 0.00 0.00 72 1013.7
20260508094100 15 223 4.8 4.8 0.00 0.00 0.00 72 1014.0
20260508093558 15 304 0.0 4.8 0.00 0.00 0.00 72 1013.8
20260508093056 15 198 4.8 6.4 0.00 0.00 0.00 73 1013.8
20260508092552 15 94 1.6 4.8 0.00 0.00 0.00 73 1013.9
20260508092051 15 11 0.0 1.6 0.00 0.00 0.00 73 1013.7
20260508091548 15 258 3.2 4.8 0.00 0.00 0.00 73 1013.7
20260508091044 15 98 1.6 3.2 0.00 0.00 0.00 72 1013.7
20260508090543 15 202 0.0 3.2 0.00 0.00 0.00 72 1013.8
20260508090039 15 34 0.0 1.6 0.00 0.00 0.00 72 1013.8
20260508085535 16 247 0.0 1.6 0.00 0.00 0.00 71 1013.9
20260508085033 16 215 0.0 1.6 0.00 0.00 0.00 70 1013.9
20260508084530 16 265 3.2 11.3 0.00 0.00 0.00 70 1013.7
20260508084027 16 258 1.6 6.4 0.00 0.00 0.00 70 1013.8
20260508083524 16 233 1.6 6.4 0.00 0.00 0.00 70 1013.9
20260508083020 16 253 3.2 6.4 0.00 0.00 0.00 69 1013.9
20260508082516 16 70 3.2 4.8 0.00 0.00 0.00 69 1014.0
20260508082014 16 199 4.8 4.8 0.00 0.00 0.00 69 1013.8
20260508081512 16 184 1.6 11.3 0.00 0.00 0.00 68 1014.0
20260508081007 16 154 3.2 4.8 0.00 0.00 0.00 68 1014.1
20260508080506 16 187 1.6 11.3 0.00 0.00 0.00 68 1014.0
20260508080002 15 44 1.6 4.8 0.00 0.00 0.00 68 1014.0
20260508075459 16 269 3.2 4.8 0.00 0.00 0.00 68 1014.1
20260508074957 16 346 1.6 4.8 0.00 0.00 0.00 68 1014.3
20260508074454 16 266 4.8 4.8 0.00 0.00 0.00 67 1014.3
20260508073951 16 270 3.2 4.8 0.00 0.00 0.00 67 1014.2
20260508073448 16 256 1.6 6.4 0.00 0.00 0.00 66 1014.4
20260508072945 16 301 1.6 4.8 0.00 0.00 0.00 66 1014.6
20260508072441 16 334 1.6 6.4 0.00 0.00 0.00 65 1014.5
20260508071939 16 72 1.6 9.7 0.00 0.00 0.00 65 1014.6
20260508071437 16 176 3.2 9.7 0.00 0.00 0.00 65 1014.7
20260508070934 16 87 3.2 6.4 0.00 0.00 0.00 64 1014.7
20260508070432 16 173 6.4 9.7 0.00 0.00 0.00 63 1014.6
20260508065930 16 114 6.4 11.3 0.00 0.00 0.00 62 1014.7
20260508065422 16 296 1.6 11.3 0.00 0.00 0.00 62 1014.8
20260508064920 16 330 1.6 9.7 0.00 0.00 0.00 61 1014.9
20260508064417 17 321 3.2 11.3 0.00 0.00 0.00 60 1014.9
20260508063915 17 241 4.8 9.7 0.00 0.00 0.00 58 1015.1
20260508063412 17 278 4.8 6.4 0.00 0.00 0.00 57 1015.0
20260508062909 17 39 6.4 9.7 0.00 0.00 0.00 56 1015.0
20260508062407 17 135 6.4 9.7 0.00 0.00 0.00 55 1015.0
20260508061904 17 234 3.2 6.4 0.00 0.00 0.00 54 1014.9
20260508061402 17 214 1.6 3.2 0.00 0.00 0.00 53 1014.9
20260508060857 17 266 1.6 11.3 0.00 0.00 0.00 52 1015.1
20260508060355 17 257 3.2 14.5 0.00 0.00 0.00 52 1015.1
20260508055850 17 257 1.6 3.2 0.00 0.00 0.00 52 1015.0
20260508055348 17 246 1.6 6.4 0.00 0.00 0.00 52 1015.3
20260508054844 17 264 3.2 9.7 0.00 0.00 0.00 52 1015.1
20260508054342 17 326 4.8 6.4 0.00 0.00 0.00 52 1015.1
20260508053838 17 219 3.2 4.8 0.00 0.00 0.00 52 1015.0
20260508053336 17 323 1.6 12.9 0.00 0.00 0.00 52 1015.0
20260508052833 17 261 0.0 3.2 0.00 0.00 0.00 52 1015.1
20260508052330 17 277 1.6 4.8 0.00 0.00 0.00 52 1015.0
20260508051826 17 302 0.0 3.2 0.00 0.00 0.00 52 1014.9
20260508051322 17 315 4.8 9.7 0.00 0.00 0.00 52 1015.1
20260508050818 16 278 1.6 3.2 0.00 0.00 0.00 54 1015.1
20260508050316 17 321 1.6 3.2 0.00 0.00 0.00 54 1015.0
20260508045811 16 259 1.6 1.6 0.00 0.00 0.00 54 1015.2
20260508045309 16 179 0.0 1.6 0.00 0.00 0.00 55 1015.1
20260508044807 16 243 0.0 3.2 0.00 0.00 0.00 55 1015.3
20260508044303 16 245 0.0 1.6 0.00 0.00 0.00 55 1015.1
20260508043759 16 160 1.6 3.2 0.00 0.00 0.00 54 1015.2
20260508043257 16 269 1.6 1.6 0.00 0.00 0.00 54 1015.3
20260508042753 16 321 0.0 1.6 0.00 0.00 0.00 54 1015.5
20260508042251 16 186 0.0 1.6 0.00 0.00 0.00 54 1015.3
20260508041747 16 155 0.0 1.6 0.00 0.00 0.00 54 1015.7
20260508041244 16 219 0.0 1.6 0.00 0.00 0.00 55 1015.5
20260508040740 16 225 0.0 0.0 0.00 0.00 0.00 54 1015.5
20260508040238 16 153 0.0 0.0 0.00 0.00 0.00 53 1015.5
20260508035735 16 231 0.0 1.6 0.00 0.00 0.00 52 1015.3
20260508035232 16 296 0.0 0.0 0.00 0.00 0.00 51 1015.5
20260508034729 16 296 0.0 1.6 0.00 0.00 0.00 51 1015.5
20260508034226 17 235 1.6 1.6 0.00 0.00 0.00 50 1015.5
20260508033723 17 242 0.0 0.0 0.00 0.00 0.00 48 1015.5
20260508033222 17 162 0.0 1.6 0.00 0.00 0.00 47 1015.5
20260508032719 17 160 0.0 0.0 0.00 0.00 0.00 47 1015.4
20260508032216 17 246 0.0 3.2 0.00 0.00 0.00 46 1015.4
20260508031712 18 298 0.0 3.2 0.00 0.00 0.00 46 1015.4
20260508031209 18 22 0.0 1.6 0.00 0.00 0.00 45 1015.5
20260508030705 18 66 0.0 0.0 0.00 0.00 0.00 45 1015.5
20260508030203 18 254 0.0 1.6 0.00 0.00 0.00 45 1015.5
20260508025659 18 219 1.6 3.2 0.00 0.00 0.00 44 1015.2
20260508025156 18 262 0.0 1.6 0.00 0.00 0.00 44 1015.4
20260508024652 17 180 0.0 0.0 0.00 0.00 0.00 46 1015.2
20260508024149 18 209 0.0 0.0 0.00 0.00 0.00 47 1015.2
20260508023645 18 213 0.0 0.0 0.00 0.00 0.00 48 1015.1
20260508023143 18 181 0.0 0.0 0.00 0.00 0.00 46 1015.0
20260508022639 19 208 0.0 1.6 0.00 0.00 0.00 42 1015.0
20260508022136 19 283 0.0 1.6 0.00 0.00 0.00 42 1015.1
20260508021632 19 256 0.0 1.6 0.00 0.00 0.00 42 1015.3
20260508021127 20 189 0.0 1.6 0.00 0.00 0.00 40 1015.1
20260508020626 20 261 0.0 0.0 0.00 0.00 0.00 40 1015.1
20260508020123 20 169 0.0 0.0 0.00 0.00 0.00 40 1015.1
20260508015620 20 169 0.0 3.2 0.00 0.00 0.00 40 1015.0
20260508015117 20 222 0.0 1.6 0.00 0.00 0.00 40 1014.9
20260508014613 20 224 0.0 0.0 0.00 0.00 0.00 40 1014.9
20260508014110 20 159 0.0 1.6 0.00 0.00 0.00 39 1014.9
20260508013606 20 292 1.6 1.6 0.00 0.00 0.00 38 1014.9
20260508013103 21 14 0.0 0.0 0.00 0.00 0.00 38 1014.7
20260508012601 21 266 1.6 3.2 0.00 0.00 0.00 37 1015.0
20260508012058 21 196 1.6 3.2 0.00 0.00 0.00 37 1015.0
20260508011556 21 145 1.6 4.8 0.00 0.00 0.00 37 1014.7
20260508011053 22 321 1.6 3.2 0.00 0.00 0.00 36 1014.9
20260508010549 22 175 0.0 3.2 0.00 0.00 0.00 36 1014.6
20260508010047 22 174 1.6 3.2 0.00 0.00 0.00 36 1014.6
20260508005543 22 272 1.6 4.8 0.00 0.00 0.00 36 1014.7
20260508005034 22 300 1.6 3.2 0.00 0.00 0.00 35 1014.4
20260508004530 22 185 1.6 3.2 0.00 0.00 0.00 34 1014.4
20260508004027 22 71 1.6 1.6 0.00 0.00 0.00 33 1014.5
20260508003524 23 223 1.6 4.8 0.00 0.00 0.00 33 1014.4
20260508003022 23 305 0.0 3.2 0.00 0.00 0.00 33 1014.3
20260508002517 23 169 1.6 4.8 0.00 0.00 0.00 32 1014.3
20260508002015 23 246 1.6 3.2 0.00 0.00 0.00 32 1014.5
20260508001511 23 230 0.0 4.8 0.00 0.00 0.00 32 1014.5
20260508001007 24 105 1.6 4.8 0.00 0.00 0.00 31 1014.4
20260508000502 24 8 0.0 0.0 0.00 0.00 0.00 31 1014.4
20260507235959 24 298 1.6 4.8 0.00 0.00 0.00 31 1014.6
20260507235451 24 61 1.6 3.2 0.00 0.00 0.00 32 1014.4
20260507234948 25 245 3.2 3.2 0.00 0.00 0.00 30 1014.4
20260507234445 25 56 1.6 3.2 0.00 0.00 0.00 32 1014.7